Data supplied by UK-AIR on 30/3/2010
All Data GMT hour ending 
Status: R =Ratified P=Provisional,P*=As supplied
,,Aberdeen Union Street Roadside,,,,,,,,,,,,,,,,,,,,,,,
Date,time,"Nitric oxide",status,unit,"Nitrogen dioxide",status,unit,"Nitrogen oxides as nitrogen dioxide",status,unit
 
01-01-2009,01:00,55,R,ugm-3,63,R,ugm-3,147,R,ugm-3
01-01-2009,02:00,93,R,ugm-3,74,R,ugm-3,216,R,ugm-3
01-01-2009,03:00,23,R,ugm-3,46,R,ugm-3,80,R,ugm-3
01-01-2009,04:00,28,R,ugm-3,42,R,ugm-3,84,R,ugm-3
01-01-2009,05:00,41,R,ugm-3,65,R,ugm-3,128,R,ugm-3
01-01-2009,06:00,11,R,ugm-3,32,R,ugm-3,50,R,ugm-3
01-01-2009,07:00,18,R,ugm-3,36,R,ugm-3,63,R,ugm-3
01-01-2009,08:00,19,R,ugm-3,44,R,ugm-3,73,R,ugm-3
01-01-2009,09:00,19,R,ugm-3,42,R,ugm-3,71,R,ugm-3
01-01-2009,10:00,23,R,ugm-3,44,R,ugm-3,78,R,ugm-3
01-01-2009,11:00,29,R,ugm-3,48,R,ugm-3,92,R,ugm-3
01-01-2009,12:00,45,R,ugm-3,65,R,ugm-3,134,R,ugm-3
01-01-2009,13:00,19,R,ugm-3,50,R,ugm-3,78,R,ugm-3
01-01-2009,14:00,38,R,ugm-3,48,R,ugm-3,105,R,ugm-3
01-01-2009,15:00,41,R,ugm-3,73,R,ugm-3,136,R,ugm-3
01-01-2009,16:00,38,R,ugm-3,63,R,ugm-3,120,R,ugm-3
01-01-2009,17:00,61,R,ugm-3,57,R,ugm-3,151,R,ugm-3
01-01-2009,18:00,69,R,ugm-3,48,R,ugm-3,153,R,ugm-3
01-01-2009,19:00,110,R,ugm-3,117,R,ugm-3,285,R,ugm-3
01-01-2009,20:00,23,R,ugm-3,50,R,ugm-3,84,R,ugm-3
01-01-2009,21:00,65,R,ugm-3,55,R,ugm-3,155,R,ugm-3
01-01-2009,22:00,26,R,ugm-3,44,R,ugm-3,84,R,ugm-3
01-01-2009,23:00,9,R,ugm-3,32,R,ugm-3,46,R,ugm-3
01-01-2009,24:00,18,R,ugm-3,46,R,ugm-3,73,R,ugm-3
02-01-2009,01:00,6,R,ugm-3,31,R,ugm-3,40,R,ugm-3
02-01-2009,02:00,18,R,ugm-3,29,R,ugm-3,55,R,ugm-3
02-01-2009,03:00,8,R,ugm-3,31,R,ugm-3,42,R,ugm-3
02-01-2009,04:00,13,R,ugm-3,32,R,ugm-3,52,R,ugm-3
02-01-2009,05:00,15,R,ugm-3,44,R,ugm-3,67,R,ugm-3
02-01-2009,06:00,26,R,ugm-3,52,R,ugm-3,92,R,ugm-3
02-01-2009,07:00,38,R,ugm-3,63,R,ugm-3,120,R,ugm-3
02-01-2009,08:00,73,R,ugm-3,84,R,ugm-3,195,R,ugm-3
02-01-2009,09:00,35,R,ugm-3,67,R,ugm-3,120,R,ugm-3
02-01-2009,10:00,44,R,ugm-3,61,R,ugm-3,128,R,ugm-3
02-01-2009,11:00,79,R,ugm-3,71,R,ugm-3,191,R,ugm-3
02-01-2009,12:00,56,R,ugm-3,80,R,ugm-3,166,R,ugm-3
02-01-2009,13:00,126,R,ugm-3,92,R,ugm-3,285,R,ugm-3
02-01-2009,14:00,46,R,ugm-3,67,R,ugm-3,138,R,ugm-3
02-01-2009,15:00,78,R,ugm-3,76,R,ugm-3,195,R,ugm-3
02-01-2009,16:00,96,R,ugm-3,65,R,ugm-3,212,R,ugm-3
02-01-2009,17:00,125,R,ugm-3,94,R,ugm-3,285,R,ugm-3
02-01-2009,18:00,61,R,ugm-3,59,R,ugm-3,153,R,ugm-3
02-01-2009,19:00,58,R,ugm-3,59,R,ugm-3,147,R,ugm-3
02-01-2009,20:00,74,R,ugm-3,65,R,ugm-3,178,R,ugm-3
02-01-2009,21:00,65,R,ugm-3,57,R,ugm-3,157,R,ugm-3
02-01-2009,22:00,76,R,ugm-3,82,R,ugm-3,199,R,ugm-3
02-01-2009,23:00,40,R,ugm-3,59,R,ugm-3,120,R,ugm-3
02-01-2009,24:00,38,R,ugm-3,67,R,ugm-3,124,R,ugm-3
03-01-2009,01:00,30,R,ugm-3,48,R,ugm-3,94,R,ugm-3
03-01-2009,02:00,14,R,ugm-3,38,R,ugm-3,59,R,ugm-3
03-01-2009,03:00,15,R,ugm-3,40,R,ugm-3,63,R,ugm-3
03-01-2009,04:00,11,R,ugm-3,31,R,ugm-3,48,R,ugm-3
03-01-2009,05:00,28,R,ugm-3,42,R,ugm-3,84,R,ugm-3
03-01-2009,06:00,14,R,ugm-3,31,R,ugm-3,52,R,ugm-3
03-01-2009,07:00,105,R,ugm-3,90,R,ugm-3,250,R,ugm-3
03-01-2009,08:00,84,R,ugm-3,99,R,ugm-3,227,R,ugm-3
03-01-2009,09:00,190,R,ugm-3,86,R,ugm-3,376,R,ugm-3
03-01-2009,10:00,119,R,ugm-3,84,R,ugm-3,265,R,ugm-3
03-01-2009,11:00,198,R,ugm-3,120,R,ugm-3,422,R,ugm-3
03-01-2009,12:00,154,R,ugm-3,149,R,ugm-3,384,R,ugm-3
03-01-2009,13:00,123,R,ugm-3,138,R,ugm-3,325,R,ugm-3
03-01-2009,14:00,130,R,ugm-3,105,R,ugm-3,304,R,ugm-3
03-01-2009,15:00,121,R,ugm-3,109,R,ugm-3,294,R,ugm-3
03-01-2009,16:00,139,R,ugm-3,78,R,ugm-3,290,R,ugm-3
03-01-2009,17:00,178,R,ugm-3,109,R,ugm-3,380,R,ugm-3
03-01-2009,18:00,159,R,ugm-3,113,R,ugm-3,355,R,ugm-3
03-01-2009,19:00,96,R,ugm-3,74,R,ugm-3,222,R,ugm-3
03-01-2009,20:00,43,R,ugm-3,69,R,ugm-3,134,R,ugm-3
03-01-2009,21:00,36,R,ugm-3,46,R,ugm-3,101,R,ugm-3
03-01-2009,22:00,33,R,ugm-3,61,R,ugm-3,111,R,ugm-3
03-01-2009,23:00,40,R,ugm-3,46,R,ugm-3,107,R,ugm-3
03-01-2009,24:00,59,R,ugm-3,92,R,ugm-3,181,R,ugm-3
04-01-2009,01:00,59,R,ugm-3,80,R,ugm-3,170,R,ugm-3
04-01-2009,02:00,15,R,ugm-3,32,R,ugm-3,55,R,ugm-3
04-01-2009,03:00,20,R,ugm-3,40,R,ugm-3,71,R,ugm-3
04-01-2009,04:00,24,R,ugm-3,29,R,ugm-3,65,R,ugm-3
04-01-2009,05:00,13,R,ugm-3,23,R,ugm-3,42,R,ugm-3
04-01-2009,06:00,3,R,ugm-3,13,R,ugm-3,17,R,ugm-3
04-01-2009,07:00,6,R,ugm-3,27,R,ugm-3,36,R,ugm-3
04-01-2009,08:00,16,R,ugm-3,27,R,ugm-3,52,R,ugm-3
04-01-2009,09:00,9,R,ugm-3,21,R,ugm-3,34,R,ugm-3
04-01-2009,10:00,20,R,ugm-3,31,R,ugm-3,61,R,ugm-3
04-01-2009,11:00,18,R,ugm-3,23,R,ugm-3,50,R,ugm-3
04-01-2009,12:00,63,R,ugm-3,32,R,ugm-3,128,R,ugm-3
04-01-2009,13:00,49,R,ugm-3,52,R,ugm-3,126,R,ugm-3
04-01-2009,14:00,53,R,ugm-3,61,R,ugm-3,141,R,ugm-3
04-01-2009,15:00,44,R,ugm-3,53,R,ugm-3,120,R,ugm-3
04-01-2009,16:00,41,R,ugm-3,65,R,ugm-3,128,R,ugm-3
04-01-2009,17:00,44,R,ugm-3,55,R,ugm-3,122,R,ugm-3
04-01-2009,18:00,39,R,ugm-3,55,R,ugm-3,115,R,ugm-3
04-01-2009,19:00,16,R,ugm-3,46,R,ugm-3,71,R,ugm-3
04-01-2009,20:00,35,R,ugm-3,40,R,ugm-3,94,R,ugm-3
04-01-2009,21:00,13,R,ugm-3,29,R,ugm-3,48,R,ugm-3
04-01-2009,22:00,15,R,ugm-3,34,R,ugm-3,57,R,ugm-3
04-01-2009,23:00,39,R,ugm-3,55,R,ugm-3,115,R,ugm-3
04-01-2009,24:00,95,R,ugm-3,61,R,ugm-3,206,R,ugm-3
05-01-2009,01:00,8,R,ugm-3,25,R,ugm-3,36,R,ugm-3
05-01-2009,02:00,29,R,ugm-3,59,R,ugm-3,103,R,ugm-3
05-01-2009,03:00,15,R,ugm-3,57,R,ugm-3,80,R,ugm-3
05-01-2009,04:00,14,R,ugm-3,57,R,ugm-3,78,R,ugm-3
05-01-2009,05:00,25,R,ugm-3,67,R,ugm-3,105,R,ugm-3
05-01-2009,06:00,25,R,ugm-3,65,R,ugm-3,103,R,ugm-3
05-01-2009,07:00,49,R,ugm-3,71,R,ugm-3,145,R,ugm-3
05-01-2009,08:00,71,R,ugm-3,82,R,ugm-3,191,R,ugm-3
05-01-2009,09:00,188,R,ugm-3,99,R,ugm-3,386,R,ugm-3
05-01-2009,10:00,200,R,ugm-3,115,R,ugm-3,420,R,ugm-3
05-01-2009,11:00,240,R,ugm-3,115,R,ugm-3,481,R,ugm-3
05-01-2009,12:00,134,R,ugm-3,96,R,ugm-3,300,R,ugm-3
05-01-2009,13:00,74,R,ugm-3,88,R,ugm-3,201,R,ugm-3
05-01-2009,14:00,103,R,ugm-3,107,R,ugm-3,264,R,ugm-3
05-01-2009,15:00,128,R,ugm-3,105,R,ugm-3,300,R,ugm-3
05-01-2009,16:00,193,R,ugm-3,103,R,ugm-3,397,R,ugm-3
05-01-2009,17:00,371,R,ugm-3,149,R,ugm-3,716,R,ugm-3
05-01-2009,18:00,275,R,ugm-3,222,R,ugm-3,642,R,ugm-3
05-01-2009,19:00,146,R,ugm-3,88,R,ugm-3,311,R,ugm-3
05-01-2009,20:00,90,R,ugm-3,69,R,ugm-3,206,R,ugm-3
05-01-2009,21:00,85,R,ugm-3,86,R,ugm-3,216,R,ugm-3
05-01-2009,22:00,45,R,ugm-3,61,R,ugm-3,130,R,ugm-3
05-01-2009,23:00,49,R,ugm-3,50,R,ugm-3,124,R,ugm-3
05-01-2009,24:00,38,R,ugm-3,57,R,ugm-3,115,R,ugm-3
06-01-2009,01:00,11,R,ugm-3,32,R,ugm-3,50,R,ugm-3
06-01-2009,02:00,4,R,ugm-3,25,R,ugm-3,31,R,ugm-3
06-01-2009,03:00,5,R,ugm-3,23,R,ugm-3,31,R,ugm-3
06-01-2009,04:00,4,R,ugm-3,19,R,ugm-3,25,R,ugm-3
06-01-2009,05:00,8,R,ugm-3,25,R,ugm-3,36,R,ugm-3
06-01-2009,06:00,31,R,ugm-3,50,R,ugm-3,97,R,ugm-3
06-01-2009,07:00,128,R,ugm-3,90,R,ugm-3,285,R,ugm-3
06-01-2009,08:00,68,R,ugm-3,103,R,ugm-3,206,R,ugm-3
06-01-2009,09:00,151,R,ugm-3,126,R,ugm-3,357,R,ugm-3
06-01-2009,10:00,194,R,ugm-3,136,R,ugm-3,432,R,ugm-3
06-01-2009,11:00,213,R,ugm-3,168,R,ugm-3,493,R,ugm-3
06-01-2009,12:00,148,R,ugm-3,103,R,ugm-3,329,R,ugm-3
06-01-2009,13:00,148,R,ugm-3,109,R,ugm-3,334,R,ugm-3
06-01-2009,14:00,145,R,ugm-3,103,R,ugm-3,325,R,ugm-3
06-01-2009,15:00,230,R,ugm-3,115,R,ugm-3,466,R,ugm-3
06-01-2009,16:00,69,R,ugm-3,97,R,ugm-3,202,R,ugm-3
06-01-2009,17:00,125,R,ugm-3,117,R,ugm-3,308,R,ugm-3
06-01-2009,18:00,218,R,ugm-3,86,R,ugm-3,418,R,ugm-3
06-01-2009,19:00,124,R,ugm-3,94,R,ugm-3,283,R,ugm-3
06-01-2009,20:00,64,R,ugm-3,55,R,ugm-3,153,R,ugm-3
06-01-2009,21:00,51,R,ugm-3,63,R,ugm-3,141,R,ugm-3
06-01-2009,22:00,49,R,ugm-3,55,R,ugm-3,130,R,ugm-3
06-01-2009,23:00,53,R,ugm-3,78,R,ugm-3,159,R,ugm-3
06-01-2009,24:00,33,R,ugm-3,57,R,ugm-3,107,R,ugm-3
07-01-2009,01:00,44,R,ugm-3,61,R,ugm-3,128,R,ugm-3
07-01-2009,02:00,3,R,ugm-3,21,R,ugm-3,25,R,ugm-3
07-01-2009,03:00,9,R,ugm-3,25,R,ugm-3,38,R,ugm-3
07-01-2009,04:00,18,R,ugm-3,29,R,ugm-3,55,R,ugm-3
07-01-2009,05:00,15,R,ugm-3,52,R,ugm-3,74,R,ugm-3
07-01-2009,06:00,41,R,ugm-3,65,R,ugm-3,128,R,ugm-3
07-01-2009,07:00,259,R,ugm-3,170,R,ugm-3,565,R,ugm-3
07-01-2009,08:00,338,R,ugm-3,220,R,ugm-3,735,R,ugm-3
07-01-2009,09:00,323,R,ugm-3,168,R,ugm-3,661,R,ugm-3
07-01-2009,10:00,215,R,ugm-3,174,R,ugm-3,502,R,ugm-3
07-01-2009,11:00,163,R,ugm-3,101,R,ugm-3,350,R,ugm-3
07-01-2009,12:00,94,R,ugm-3,118,R,ugm-3,262,R,ugm-3
07-01-2009,13:00,94,R,ugm-3,92,R,ugm-3,235,R,ugm-3
07-01-2009,14:00,79,R,ugm-3,97,R,ugm-3,218,R,ugm-3
07-01-2009,15:00,66,R,ugm-3,80,R,ugm-3,181,R,ugm-3
07-01-2009,16:00,141,R,ugm-3,105,R,ugm-3,321,R,ugm-3
07-01-2009,17:00,80,R,ugm-3,84,R,ugm-3,206,R,ugm-3
07-01-2009,18:00,194,R,ugm-3,139,R,ugm-3,435,R,ugm-3
07-01-2009,19:00,304,R,ugm-3,168,R,ugm-3,632,R,ugm-3
07-01-2009,20:00,108,R,ugm-3,88,R,ugm-3,252,R,ugm-3
07-01-2009,21:00,64,R,ugm-3,73,R,ugm-3,170,R,ugm-3
07-01-2009,22:00,88,R,ugm-3,67,R,ugm-3,201,R,ugm-3
07-01-2009,23:00,41,R,ugm-3,55,R,ugm-3,118,R,ugm-3
07-01-2009,24:00,16,R,ugm-3,38,R,ugm-3,63,R,ugm-3
08-01-2009,01:00,9,R,ugm-3,29,R,ugm-3,42,R,ugm-3
08-01-2009,02:00,18,R,ugm-3,46,R,ugm-3,73,R,ugm-3
08-01-2009,03:00,28,R,ugm-3,50,R,ugm-3,92,R,ugm-3
08-01-2009,04:00,19,R,ugm-3,34,R,ugm-3,63,R,ugm-3
08-01-2009,05:00,55,R,ugm-3,61,R,ugm-3,145,R,ugm-3
08-01-2009,06:00,90,R,ugm-3,65,R,ugm-3,202,R,ugm-3
08-01-2009,07:00,210,R,ugm-3,111,R,ugm-3,432,R,ugm-3
08-01-2009,08:00,348,R,ugm-3,166,R,ugm-3,697,R,ugm-3
08-01-2009,09:00,388,R,ugm-3,172,R,ugm-3,764,R,ugm-3
08-01-2009,10:00,355,R,ugm-3,151,R,ugm-3,693,R,ugm-3
08-01-2009,11:00,309,R,ugm-3,160,R,ugm-3,632,R,ugm-3
08-01-2009,12:00,,,,,,,,,
08-01-2009,13:00,,,,,,,,,
08-01-2009,14:00,,,,,,,,,
08-01-2009,15:00,264,R,ugm-3,155,R,ugm-3,558,R,ugm-3
08-01-2009,16:00,170,R,ugm-3,76,R,ugm-3,336,R,ugm-3
08-01-2009,17:00,90,R,ugm-3,57,R,ugm-3,195,R,ugm-3
08-01-2009,18:00,205,R,ugm-3,111,R,ugm-3,424,R,ugm-3
08-01-2009,19:00,168,R,ugm-3,160,R,ugm-3,416,R,ugm-3
08-01-2009,20:00,79,R,ugm-3,57,R,ugm-3,178,R,ugm-3
08-01-2009,21:00,81,R,ugm-3,53,R,ugm-3,178,R,ugm-3
08-01-2009,22:00,34,R,ugm-3,19,R,ugm-3,71,R,ugm-3
08-01-2009,23:00,60,R,ugm-3,34,R,ugm-3,126,R,ugm-3
08-01-2009,24:00,,,,,,,,,
09-01-2009,01:00,,,,,,,,,
09-01-2009,02:00,,,,,,,,,
09-01-2009,03:00,,,,,,,,,
09-01-2009,04:00,,,,,,,,,
09-01-2009,05:00,,,,,,,,,
09-01-2009,06:00,,,,,,,,,
09-01-2009,07:00,90,R,ugm-3,57,R,ugm-3,195,R,ugm-3
09-01-2009,08:00,323,R,ugm-3,111,R,ugm-3,604,R,ugm-3
09-01-2009,09:00,229,R,ugm-3,134,R,ugm-3,483,R,ugm-3
09-01-2009,10:00,90,R,ugm-3,50,R,ugm-3,187,R,ugm-3
09-01-2009,11:00,49,R,ugm-3,36,R,ugm-3,111,R,ugm-3
09-01-2009,12:00,88,R,ugm-3,46,R,ugm-3,180,R,ugm-3
09-01-2009,13:00,56,R,ugm-3,84,R,ugm-3,170,R,ugm-3
09-01-2009,14:00,64,R,ugm-3,111,R,ugm-3,208,R,ugm-3
09-01-2009,15:00,61,R,ugm-3,63,R,ugm-3,157,R,ugm-3
09-01-2009,16:00,59,R,ugm-3,57,R,ugm-3,147,R,ugm-3
09-01-2009,17:00,69,R,ugm-3,74,R,ugm-3,180,R,ugm-3
09-01-2009,18:00,59,R,ugm-3,63,R,ugm-3,153,R,ugm-3
09-01-2009,19:00,48,R,ugm-3,61,R,ugm-3,134,R,ugm-3
09-01-2009,20:00,19,R,ugm-3,40,R,ugm-3,69,R,ugm-3
09-01-2009,21:00,16,R,ugm-3,38,R,ugm-3,63,R,ugm-3
09-01-2009,22:00,18,R,ugm-3,34,R,ugm-3,61,R,ugm-3
09-01-2009,23:00,14,R,ugm-3,32,R,ugm-3,53,R,ugm-3
09-01-2009,24:00,19,R,ugm-3,29,R,ugm-3,57,R,ugm-3
10-01-2009,01:00,14,R,ugm-3,25,R,ugm-3,46,R,ugm-3
10-01-2009,02:00,8,R,ugm-3,23,R,ugm-3,34,R,ugm-3
10-01-2009,03:00,8,R,ugm-3,19,R,ugm-3,31,R,ugm-3
10-01-2009,04:00,4,R,ugm-3,15,R,ugm-3,21,R,ugm-3
10-01-2009,05:00,3,R,ugm-3,13,R,ugm-3,17,R,ugm-3
10-01-2009,06:00,5,R,ugm-3,17,R,ugm-3,25,R,ugm-3
10-01-2009,07:00,20,R,ugm-3,52,R,ugm-3,82,R,ugm-3
10-01-2009,08:00,15,R,ugm-3,29,R,ugm-3,52,R,ugm-3
10-01-2009,09:00,23,R,ugm-3,32,R,ugm-3,67,R,ugm-3
10-01-2009,10:00,23,R,ugm-3,29,R,ugm-3,63,R,ugm-3
10-01-2009,11:00,31,R,ugm-3,38,R,ugm-3,86,R,ugm-3
10-01-2009,12:00,16,R,ugm-3,27,R,ugm-3,52,R,ugm-3
10-01-2009,13:00,13,R,ugm-3,25,R,ugm-3,44,R,ugm-3
10-01-2009,14:00,13,R,ugm-3,32,R,ugm-3,52,R,ugm-3
10-01-2009,15:00,19,R,ugm-3,19,R,ugm-3,48,R,ugm-3
10-01-2009,16:00,20,R,ugm-3,38,R,ugm-3,69,R,ugm-3
10-01-2009,17:00,21,R,ugm-3,34,R,ugm-3,67,R,ugm-3
10-01-2009,18:00,10,R,ugm-3,25,R,ugm-3,40,R,ugm-3
10-01-2009,19:00,15,R,ugm-3,44,R,ugm-3,67,R,ugm-3
10-01-2009,20:00,19,R,ugm-3,46,R,ugm-3,74,R,ugm-3
10-01-2009,21:00,15,R,ugm-3,25,R,ugm-3,48,R,ugm-3
10-01-2009,22:00,15,R,ugm-3,23,R,ugm-3,46,R,ugm-3
10-01-2009,23:00,10,R,ugm-3,23,R,ugm-3,38,R,ugm-3
10-01-2009,24:00,16,R,ugm-3,27,R,ugm-3,52,R,ugm-3
11-01-2009,01:00,15,R,ugm-3,19,R,ugm-3,42,R,ugm-3
11-01-2009,02:00,9,R,ugm-3,13,R,ugm-3,27,R,ugm-3
11-01-2009,03:00,6,R,ugm-3,11,R,ugm-3,21,R,ugm-3
11-01-2009,04:00,9,R,ugm-3,15,R,ugm-3,29,R,ugm-3
11-01-2009,05:00,5,R,ugm-3,17,R,ugm-3,25,R,ugm-3
11-01-2009,06:00,3,R,ugm-3,8,R,ugm-3,11,R,ugm-3
11-01-2009,07:00,4,R,ugm-3,8,R,ugm-3,13,R,ugm-3
11-01-2009,08:00,3,R,ugm-3,11,R,ugm-3,15,R,ugm-3
11-01-2009,09:00,6,R,ugm-3,11,R,ugm-3,21,R,ugm-3
11-01-2009,10:00,4,R,ugm-3,10,R,ugm-3,15,R,ugm-3
11-01-2009,11:00,8,R,ugm-3,13,R,ugm-3,25,R,ugm-3
11-01-2009,12:00,8,R,ugm-3,17,R,ugm-3,29,R,ugm-3
11-01-2009,13:00,9,R,ugm-3,17,R,ugm-3,31,R,ugm-3
11-01-2009,14:00,5,R,ugm-3,11,R,ugm-3,19,R,ugm-3
11-01-2009,15:00,8,R,ugm-3,15,R,ugm-3,27,R,ugm-3
11-01-2009,16:00,8,R,ugm-3,25,R,ugm-3,36,R,ugm-3
11-01-2009,17:00,6,R,ugm-3,15,R,ugm-3,25,R,ugm-3
11-01-2009,18:00,9,R,ugm-3,13,R,ugm-3,27,R,ugm-3
11-01-2009,19:00,6,R,ugm-3,11,R,ugm-3,21,R,ugm-3
11-01-2009,20:00,5,R,ugm-3,11,R,ugm-3,19,R,ugm-3
11-01-2009,21:00,4,R,ugm-3,10,R,ugm-3,15,R,ugm-3
11-01-2009,22:00,4,R,ugm-3,11,R,ugm-3,17,R,ugm-3
11-01-2009,23:00,5,R,ugm-3,13,R,ugm-3,21,R,ugm-3
11-01-2009,24:00,3,R,ugm-3,8,R,ugm-3,11,R,ugm-3
12-01-2009,01:00,4,R,ugm-3,11,R,ugm-3,17,R,ugm-3
12-01-2009,02:00,3,R,ugm-3,8,R,ugm-3,11,R,ugm-3
12-01-2009,03:00,3,R,ugm-3,6,R,ugm-3,10,R,ugm-3
12-01-2009,04:00,1,R,ugm-3,8,R,ugm-3,10,R,ugm-3
12-01-2009,05:00,1,R,ugm-3,8,R,ugm-3,10,R,ugm-3
12-01-2009,06:00,3,R,ugm-3,8,R,ugm-3,11,R,ugm-3
12-01-2009,07:00,14,R,ugm-3,48,R,ugm-3,69,R,ugm-3
12-01-2009,08:00,21,R,ugm-3,61,R,ugm-3,94,R,ugm-3
12-01-2009,09:00,39,R,ugm-3,59,R,ugm-3,118,R,ugm-3
12-01-2009,10:00,51,R,ugm-3,69,R,ugm-3,147,R,ugm-3
12-01-2009,11:00,,,,,,,,,
12-01-2009,12:00,,,,,,,,,
12-01-2009,13:00,,,,,,,,,
12-01-2009,14:00,,,,,,,,,
12-01-2009,15:00,,,,,,,,,
12-01-2009,16:00,,,,,,,,,
12-01-2009,17:00,,,,,,,,,
12-01-2009,18:00,,,,,,,,,
12-01-2009,19:00,,,,,,,,,
12-01-2009,20:00,,,,,,,,,
12-01-2009,21:00,,,,,,,,,
12-01-2009,22:00,,,,,,,,,
12-01-2009,23:00,,,,,,,,,
12-01-2009,24:00,,,,,,,,,
13-01-2009,01:00,,,,,,,,,
13-01-2009,02:00,4,R,ugm-3,19,R,ugm-3,25,R,ugm-3
13-01-2009,03:00,5,R,ugm-3,21,R,ugm-3,29,R,ugm-3
13-01-2009,04:00,6,R,ugm-3,21,R,ugm-3,31,R,ugm-3
13-01-2009,05:00,8,R,ugm-3,25,R,ugm-3,36,R,ugm-3
13-01-2009,06:00,28,R,ugm-3,31,R,ugm-3,73,R,ugm-3
13-01-2009,07:00,149,R,ugm-3,84,R,ugm-3,311,R,ugm-3
13-01-2009,08:00,249,R,ugm-3,143,R,ugm-3,523,R,ugm-3
13-01-2009,09:00,414,R,ugm-3,197,R,ugm-3,829,R,ugm-3
13-01-2009,10:00,316,R,ugm-3,178,R,ugm-3,661,R,ugm-3
13-01-2009,11:00,344,R,ugm-3,139,R,ugm-3,665,R,ugm-3
13-01-2009,12:00,220,R,ugm-3,115,R,ugm-3,451,R,ugm-3
13-01-2009,13:00,176,R,ugm-3,99,R,ugm-3,369,R,ugm-3
13-01-2009,14:00,211,R,ugm-3,136,R,ugm-3,458,R,ugm-3
13-01-2009,15:00,174,R,ugm-3,130,R,ugm-3,395,R,ugm-3
13-01-2009,16:00,303,R,ugm-3,143,R,ugm-3,605,R,ugm-3
13-01-2009,17:00,251,R,ugm-3,178,R,ugm-3,562,R,ugm-3
13-01-2009,18:00,350,R,ugm-3,151,R,ugm-3,686,R,ugm-3
13-01-2009,19:00,310,R,ugm-3,180,R,ugm-3,653,R,ugm-3
13-01-2009,20:00,199,R,ugm-3,107,R,ugm-3,411,R,ugm-3
13-01-2009,21:00,140,R,ugm-3,90,R,ugm-3,304,R,ugm-3
13-01-2009,22:00,83,R,ugm-3,92,R,ugm-3,218,R,ugm-3
13-01-2009,23:00,83,R,ugm-3,78,R,ugm-3,204,R,ugm-3
13-01-2009,24:00,56,R,ugm-3,50,R,ugm-3,136,R,ugm-3
14-01-2009,01:00,23,R,ugm-3,40,R,ugm-3,74,R,ugm-3
14-01-2009,02:00,16,R,ugm-3,34,R,ugm-3,59,R,ugm-3
14-01-2009,03:00,13,R,ugm-3,29,R,ugm-3,48,R,ugm-3
14-01-2009,04:00,15,R,ugm-3,34,R,ugm-3,57,R,ugm-3
14-01-2009,05:00,18,R,ugm-3,36,R,ugm-3,63,R,ugm-3
14-01-2009,06:00,39,R,ugm-3,40,R,ugm-3,99,R,ugm-3
14-01-2009,07:00,151,R,ugm-3,82,R,ugm-3,313,R,ugm-3
14-01-2009,08:00,258,R,ugm-3,126,R,ugm-3,520,R,ugm-3
14-01-2009,09:00,286,R,ugm-3,145,R,ugm-3,583,R,ugm-3
14-01-2009,10:00,191,R,ugm-3,97,R,ugm-3,390,R,ugm-3
14-01-2009,11:00,211,R,ugm-3,122,R,ugm-3,445,R,ugm-3
14-01-2009,12:00,141,R,ugm-3,71,R,ugm-3,287,R,ugm-3
14-01-2009,13:00,154,R,ugm-3,96,R,ugm-3,330,R,ugm-3
14-01-2009,14:00,176,R,ugm-3,101,R,ugm-3,371,R,ugm-3
14-01-2009,15:00,164,R,ugm-3,105,R,ugm-3,355,R,ugm-3
14-01-2009,16:00,221,R,ugm-3,132,R,ugm-3,470,R,ugm-3
14-01-2009,17:00,104,R,ugm-3,82,R,ugm-3,241,R,ugm-3
14-01-2009,18:00,50,R,ugm-3,74,R,ugm-3,151,R,ugm-3
14-01-2009,19:00,18,R,ugm-3,34,R,ugm-3,61,R,ugm-3
14-01-2009,20:00,13,R,ugm-3,23,R,ugm-3,42,R,ugm-3
14-01-2009,21:00,9,R,ugm-3,21,R,ugm-3,34,R,ugm-3
14-01-2009,22:00,6,R,ugm-3,15,R,ugm-3,25,R,ugm-3
14-01-2009,23:00,8,R,ugm-3,15,R,ugm-3,27,R,ugm-3
14-01-2009,24:00,4,R,ugm-3,13,R,ugm-3,19,R,ugm-3
15-01-2009,01:00,3,R,ugm-3,11,R,ugm-3,15,R,ugm-3
15-01-2009,02:00,3,R,ugm-3,6,R,ugm-3,10,R,ugm-3
15-01-2009,03:00,3,R,ugm-3,8,R,ugm-3,11,R,ugm-3
15-01-2009,04:00,3,R,ugm-3,19,R,ugm-3,23,R,ugm-3
15-01-2009,05:00,3,R,ugm-3,31,R,ugm-3,34,R,ugm-3
15-01-2009,06:00,4,R,ugm-3,32,R,ugm-3,38,R,ugm-3
15-01-2009,07:00,21,R,ugm-3,38,R,ugm-3,71,R,ugm-3
15-01-2009,08:00,19,R,ugm-3,34,R,ugm-3,63,R,ugm-3
15-01-2009,09:00,43,R,ugm-3,50,R,ugm-3,115,R,ugm-3
15-01-2009,10:00,18,R,ugm-3,31,R,ugm-3,57,R,ugm-3
15-01-2009,11:00,,,,,,,,,
15-01-2009,12:00,,,,,,,,,
15-01-2009,13:00,,,,,,,,,
15-01-2009,14:00,,,,,,,,,
15-01-2009,15:00,,,,,,,,,
15-01-2009,16:00,,,,,,,,,
15-01-2009,17:00,,,,,,,,,
15-01-2009,18:00,,,,,,,,,
15-01-2009,19:00,,,,,,,,,
15-01-2009,20:00,,,,,,,,,
15-01-2009,21:00,,,,,,,,,
15-01-2009,22:00,,,,,,,,,
15-01-2009,23:00,,,,,,,,,
15-01-2009,24:00,,,,,,,,,
16-01-2009,01:00,,,,,,,,,
16-01-2009,02:00,,,,,,,,,
16-01-2009,03:00,,,,,,,,,
16-01-2009,04:00,,,,,,,,,
16-01-2009,05:00,,,,,,,,,
16-01-2009,06:00,,,,,,,,,
16-01-2009,07:00,,,,,,,,,
16-01-2009,08:00,,,,,,,,,
16-01-2009,09:00,,,,,,,,,
16-01-2009,10:00,,,,,,,,,
16-01-2009,11:00,,,,,,,,,
16-01-2009,12:00,,,,,,,,,
16-01-2009,13:00,,,,,,,,,
16-01-2009,14:00,,,,,,,,,
16-01-2009,15:00,,,,,,,,,
16-01-2009,16:00,,,,,,,,,
16-01-2009,17:00,,,,,,,,,
16-01-2009,18:00,,,,,,,,,
16-01-2009,19:00,,,,,,,,,
16-01-2009,20:00,,,,,,,,,
16-01-2009,21:00,,,,,,,,,
16-01-2009,22:00,,,,,,,,,
16-01-2009,23:00,,,,,,,,,
16-01-2009,24:00,,,,,,,,,
17-01-2009,01:00,,,,,,,,,
17-01-2009,02:00,,,,,,,,,
17-01-2009,03:00,,,,,,,,,
17-01-2009,04:00,,,,,,,,,
17-01-2009,05:00,,,,,,,,,
17-01-2009,06:00,,,,,,,,,
17-01-2009,07:00,,,,,,,,,
17-01-2009,08:00,,,,,,,,,
17-01-2009,09:00,,,,,,,,,
17-01-2009,10:00,,,,,,,,,
17-01-2009,11:00,,,,,,,,,
17-01-2009,12:00,,,,,,,,,
17-01-2009,13:00,,,,,,,,,
17-01-2009,14:00,,,,,,,,,
17-01-2009,15:00,,,,,,,,,
17-01-2009,16:00,,,,,,,,,
17-01-2009,17:00,,,,,,,,,
17-01-2009,18:00,,,,,,,,,
17-01-2009,19:00,,,,,,,,,
17-01-2009,20:00,,,,,,,,,
17-01-2009,21:00,,,,,,,,,
17-01-2009,22:00,,,,,,,,,
17-01-2009,23:00,,,,,,,,,
17-01-2009,24:00,,,,,,,,,
18-01-2009,01:00,,,,,,,,,
18-01-2009,02:00,,,,,,,,,
18-01-2009,03:00,,,,,,,,,
18-01-2009,04:00,,,,,,,,,
18-01-2009,05:00,,,,,,,,,
18-01-2009,06:00,,,,,,,,,
18-01-2009,07:00,,,,,,,,,
18-01-2009,08:00,,,,,,,,,
18-01-2009,09:00,,,,,,,,,
18-01-2009,10:00,,,,,,,,,
18-01-2009,11:00,,,,,,,,,
18-01-2009,12:00,,,,,,,,,
18-01-2009,13:00,,,,,,,,,
18-01-2009,14:00,,,,,,,,,
18-01-2009,15:00,,,,,,,,,
18-01-2009,16:00,,,,,,,,,
18-01-2009,17:00,,,,,,,,,
18-01-2009,18:00,,,,,,,,,
18-01-2009,19:00,,,,,,,,,
18-01-2009,20:00,,,,,,,,,
18-01-2009,21:00,,,,,,,,,
18-01-2009,22:00,,,,,,,,,
18-01-2009,23:00,,,,,,,,,
18-01-2009,24:00,,,,,,,,,
19-01-2009,01:00,,,,,,,,,
19-01-2009,02:00,,,,,,,,,
19-01-2009,03:00,,,,,,,,,
19-01-2009,04:00,,,,,,,,,
19-01-2009,05:00,,,,,,,,,
19-01-2009,06:00,,,,,,,,,
19-01-2009,07:00,,,,,,,,,
19-01-2009,08:00,,,,,,,,,
19-01-2009,09:00,,,,,,,,,
19-01-2009,10:00,,,,,,,,,
19-01-2009,11:00,,,,,,,,,
19-01-2009,12:00,,,,,,,,,
19-01-2009,13:00,,,,,,,,,
19-01-2009,14:00,,,,,,,,,
19-01-2009,15:00,,,,,,,,,
19-01-2009,16:00,,,,,,,,,
19-01-2009,17:00,,,,,,,,,
19-01-2009,18:00,,,,,,,,,
19-01-2009,19:00,,,,,,,,,
19-01-2009,20:00,,,,,,,,,
19-01-2009,21:00,,,,,,,,,
19-01-2009,22:00,,,,,,,,,
19-01-2009,23:00,,,,,,,,,
19-01-2009,24:00,,,,,,,,,
20-01-2009,01:00,,,,,,,,,
20-01-2009,02:00,,,,,,,,,
20-01-2009,03:00,,,,,,,,,
20-01-2009,04:00,,,,,,,,,
20-01-2009,05:00,,,,,,,,,
20-01-2009,06:00,,,,,,,,,
20-01-2009,07:00,,,,,,,,,
20-01-2009,08:00,,,,,,,,,
20-01-2009,09:00,,,,,,,,,
20-01-2009,10:00,,,,,,,,,
20-01-2009,11:00,,,,,,,,,
20-01-2009,12:00,,,,,,,,,
20-01-2009,13:00,,,,,,,,,
20-01-2009,14:00,,,,,,,,,
20-01-2009,15:00,,,,,,,,,
20-01-2009,16:00,33,R,ugm-3,57,R,ugm-3,107,R,ugm-3
20-01-2009,17:00,24,R,ugm-3,42,R,ugm-3,78,R,ugm-3
20-01-2009,18:00,40,R,ugm-3,53,R,ugm-3,115,R,ugm-3
20-01-2009,19:00,19,R,ugm-3,34,R,ugm-3,63,R,ugm-3
20-01-2009,20:00,11,R,ugm-3,21,R,ugm-3,38,R,ugm-3
20-01-2009,21:00,14,R,ugm-3,40,R,ugm-3,61,R,ugm-3
20-01-2009,22:00,15,R,ugm-3,25,R,ugm-3,48,R,ugm-3
20-01-2009,23:00,10,R,ugm-3,32,R,ugm-3,48,R,ugm-3
20-01-2009,24:00,16,R,ugm-3,42,R,ugm-3,67,R,ugm-3
21-01-2009,01:00,8,R,ugm-3,31,R,ugm-3,42,R,ugm-3
21-01-2009,02:00,14,R,ugm-3,44,R,ugm-3,65,R,ugm-3
21-01-2009,03:00,4,R,ugm-3,15,R,ugm-3,21,R,ugm-3
21-01-2009,04:00,5,R,ugm-3,25,R,ugm-3,32,R,ugm-3
21-01-2009,05:00,16,R,ugm-3,52,R,ugm-3,76,R,ugm-3
21-01-2009,06:00,93,R,ugm-3,92,R,ugm-3,233,R,ugm-3
21-01-2009,07:00,211,R,ugm-3,126,R,ugm-3,449,R,ugm-3
21-01-2009,08:00,179,R,ugm-3,122,R,ugm-3,395,R,ugm-3
21-01-2009,09:00,363,R,ugm-3,181,R,ugm-3,735,R,ugm-3
21-01-2009,10:00,300,R,ugm-3,141,R,ugm-3,600,R,ugm-3
21-01-2009,11:00,183,R,ugm-3,84,R,ugm-3,363,R,ugm-3
21-01-2009,12:00,111,R,ugm-3,71,R,ugm-3,241,R,ugm-3
21-01-2009,13:00,28,R,ugm-3,46,R,ugm-3,88,R,ugm-3
21-01-2009,14:00,58,R,ugm-3,71,R,ugm-3,159,R,ugm-3
21-01-2009,15:00,44,R,ugm-3,65,R,ugm-3,132,R,ugm-3
21-01-2009,16:00,66,R,ugm-3,74,R,ugm-3,176,R,ugm-3
21-01-2009,17:00,40,R,ugm-3,74,R,ugm-3,136,R,ugm-3
21-01-2009,18:00,29,R,ugm-3,48,R,ugm-3,92,R,ugm-3
21-01-2009,19:00,16,R,ugm-3,40,R,ugm-3,65,R,ugm-3
21-01-2009,20:00,8,R,ugm-3,23,R,ugm-3,34,R,ugm-3
21-01-2009,21:00,8,R,ugm-3,23,R,ugm-3,34,R,ugm-3
21-01-2009,22:00,6,R,ugm-3,19,R,ugm-3,29,R,ugm-3
21-01-2009,23:00,5,R,ugm-3,15,R,ugm-3,23,R,ugm-3
21-01-2009,24:00,4,R,ugm-3,15,R,ugm-3,21,R,ugm-3
22-01-2009,01:00,3,R,ugm-3,13,R,ugm-3,17,R,ugm-3
22-01-2009,02:00,3,R,ugm-3,13,R,ugm-3,17,R,ugm-3
22-01-2009,03:00,3,R,ugm-3,13,R,ugm-3,17,R,ugm-3
22-01-2009,04:00,3,R,ugm-3,13,R,ugm-3,17,R,ugm-3
22-01-2009,05:00,3,R,ugm-3,11,R,ugm-3,15,R,ugm-3
22-01-2009,06:00,4,R,ugm-3,10,R,ugm-3,15,R,ugm-3
22-01-2009,07:00,8,R,ugm-3,15,R,ugm-3,27,R,ugm-3
22-01-2009,08:00,14,R,ugm-3,21,R,ugm-3,42,R,ugm-3
22-01-2009,09:00,20,R,ugm-3,31,R,ugm-3,61,R,ugm-3
22-01-2009,10:00,53,R,ugm-3,53,R,ugm-3,134,R,ugm-3
22-01-2009,11:00,106,R,ugm-3,86,R,ugm-3,248,R,ugm-3
22-01-2009,12:00,133,R,ugm-3,67,R,ugm-3,269,R,ugm-3
22-01-2009,13:00,90,R,ugm-3,103,R,ugm-3,241,R,ugm-3
22-01-2009,14:00,50,R,ugm-3,65,R,ugm-3,141,R,ugm-3
22-01-2009,15:00,69,R,ugm-3,90,R,ugm-3,195,R,ugm-3
22-01-2009,16:00,48,R,ugm-3,55,R,ugm-3,128,R,ugm-3
22-01-2009,17:00,68,R,ugm-3,50,R,ugm-3,153,R,ugm-3
22-01-2009,18:00,94,R,ugm-3,80,R,ugm-3,223,R,ugm-3
22-01-2009,19:00,46,R,ugm-3,55,R,ugm-3,126,R,ugm-3
22-01-2009,20:00,25,R,ugm-3,55,R,ugm-3,94,R,ugm-3
22-01-2009,21:00,11,R,ugm-3,32,R,ugm-3,50,R,ugm-3
22-01-2009,22:00,11,R,ugm-3,29,R,ugm-3,46,R,ugm-3
22-01-2009,23:00,13,R,ugm-3,31,R,ugm-3,50,R,ugm-3
22-01-2009,24:00,61,R,ugm-3,44,R,ugm-3,138,R,ugm-3
23-01-2009,01:00,9,R,ugm-3,36,R,ugm-3,50,R,ugm-3
23-01-2009,02:00,3,R,ugm-3,15,R,ugm-3,19,R,ugm-3
23-01-2009,03:00,4,R,ugm-3,15,R,ugm-3,21,R,ugm-3
23-01-2009,04:00,3,R,ugm-3,11,R,ugm-3,15,R,ugm-3
23-01-2009,05:00,4,R,ugm-3,8,R,ugm-3,13,R,ugm-3
23-01-2009,06:00,4,R,ugm-3,13,R,ugm-3,19,R,ugm-3
23-01-2009,07:00,20,R,ugm-3,38,R,ugm-3,69,R,ugm-3
23-01-2009,08:00,36,R,ugm-3,63,R,ugm-3,118,R,ugm-3
23-01-2009,09:00,91,R,ugm-3,97,R,ugm-3,237,R,ugm-3
23-01-2009,10:00,104,R,ugm-3,74,R,ugm-3,233,R,ugm-3
23-01-2009,11:00,73,R,ugm-3,63,R,ugm-3,174,R,ugm-3
23-01-2009,12:00,50,R,ugm-3,69,R,ugm-3,145,R,ugm-3